Date String (YYYY-MM-DD hh:mm:ss) UTC,Instrument flags,absolute air pressure of the measurement (hPa),sample flow rate (lpm),inlet stack bypass flow (lpm),air temperature of the measurement (°C),ambient temperature measured by the external sensor (°C),aerosol sample conditioner tube jacket temperature (°C),OPC LED temperature (°C),internal box temperature (°C),relative humidity of the measurement (%),span deviation,mass concentration of particles derived from Lorenz-Mie calculation of OPC scattering (μg/m³),mass concentration of particles derived from Lorenz-Mie calculation of OPC scattering (μg/m³),mass concentration of particles derived from Lorenz-Mie calculation of OPC scattering (μg/m³)
DateTimeUTC,F1_M11,P_M11,Q1_M11,Q2_M11,T1_M11,T2_M11,T3_M11,T4_M11,T5_M11,U1_M11,ZSPAN_M11,X2_M11,X0_M11,X1_M11
2024-06-07 16:00:00,SystemResetWarning,0827.5,4.99,000.00,029.0,027.0,000.0,037.7,030.3,026.9,0000.0,0004.19,0028.21,0002.39
2024-06-07 16:01:00,SystemResetWarning,0827.5,5.02,000.00,029.0,027.4,000.0,037.6,030.5,027.5,0000.0,0004.29,0029.13,0002.43
2024-06-07 16:02:00,SystemResetWarning,0827.5,5.01,000.00,029.1,027.7,000.0,037.6,030.7,027.2,0000.0,0004.34,0030.88,0002.47
2024-06-07 16:03:00,SystemResetWarning,0827.5,4.99,000.00,029.2,028.1,000.0,037.5,030.8,027.8,0000.0,0004.46,0032.06,0002.54
2024-06-07 16:04:00,SystemResetWarning,0827.6,4.99,000.00,029.2,028.3,000.0,037.5,031.0,027.4,0000.0,0004.62,0035.81,0002.59
2024-06-07 16:05:00,SystemResetWarning,0827.8,5.00,000.00,029.3,028.6,000.0,037.5,031.1,026.8,0000.0,0004.75,0037.00,0002.65
2024-06-07 16:06:00,SystemResetWarning,0827.5,5.00,000.00,029.4,028.8,000.0,037.6,031.2,026.1,0000.0,0004.86,0039.00,0002.69
2024-06-07 16:07:00,SystemResetWarning,0827.5,5.00,000.00,029.5,028.9,000.0,037.6,031.2,025.6,0000.0,0004.90,0039.58,0002.75
2024-06-07 16:08:00,SystemResetWarning,0827.5,5.00,000.00,029.4,027.6,000.0,037.7,030.5,025.4,0000.0,0005.04,0037.94,0002.82
2024-06-07 16:09:00,SystemResetWarning,0827.5,5.01,000.00,029.0,026.0,000.0,037.7,029.8,026.6,0000.0,0005.09,0038.37,0002.87
2024-06-07 16:10:00,SystemResetWarning,0827.4,5.02,000.00,028.8,026.2,000.0,037.7,029.8,028.2,0000.0,0005.12,0038.21,0002.92
2024-06-07 16:11:00,SystemResetWarning,0827.5,4.99,000.00,028.8,026.7,000.0,037.5,030.1,029.0,0000.0,0005.23,0037.83,0003.02
2024-06-07 16:12:00,SystemResetWarning,0827.5,4.99,000.00,028.9,027.1,000.0,037.4,030.3,029.5,0000.0,0005.27,0037.36,0003.09
2024-06-07 16:13:00,SystemResetWarning,0827.7,5.00,000.00,028.9,027.5,000.0,037.4,030.5,029.7,0000.0,0005.35,0035.02,0003.15
2024-06-07 16:14:00,SystemResetWarning,0827.5,5.01,000.00,029.0,027.8,000.0,037.4,030.7,030.0,0000.0,0005.47,0035.18,0003.21
2024-06-07 16:15:00,SystemResetWarning,0827.7,5.00,000.00,029.1,028.1,000.0,037.4,030.8,028.7,0000.0,0005.43,0030.47,0003.27
2024-06-07 16:16:00,SystemResetWarning,0827.7,5.00,000.00,029.1,028.4,000.0,037.4,030.9,027.6,0000.0,0005.49,0029.08,0003.32
2024-06-07 16:17:00,SystemResetWarning,0827.7,5.00,000.00,029.2,028.6,000.0,037.4,031.0,027.6,0000.0,0005.56,0027.67,0003.37
2024-06-07 16:18:00,SystemResetWarning,0827.8,5.00,000.00,029.3,028.8,000.0,037.4,031.1,028.5,0000.0,0005.62,0027.39,0003.40
2024-06-07 16:19:00,SystemResetWarning,0827.8,4.98,000.00,029.3,028.6,000.0,037.5,031.0,028.9,0000.0,0005.72,0027.92,0003.46
2024-06-07 16:20:00,SystemResetWarning,0827.7,5.00,000.00,029.1,026.7,000.0,037.5,030.1,028.8,0000.0,0005.84,0027.33,0003.52
2024-06-07 16:21:00,SystemResetWarning,0827.7,5.01,000.00,028.7,025.5,000.0,037.5,029.5,028.8,0000.0,0005.96,0029.00,0003.57
2024-06-07 16:22:00,SystemResetWarning,0827.8,5.01,000.00,028.6,026.0,000.0,037.5,029.6,028.8,0000.0,0005.94,0029.47,0003.58
2024-06-07 16:23:00,SystemResetWarning,0827.8,4.99,000.00,028.6,026.4,000.0,037.3,029.9,028.5,0000.0,0005.90,0028.49,0003.59
2024-06-07 16:24:00,SystemResetWarning,0827.8,5.00,000.00,028.7,026.9,000.0,037.3,030.1,028.2,0000.0,0005.89,0027.68,0003.59
2024-06-07 16:25:00,SystemResetWarning,0827.8,5.00,000.00,028.7,027.3,000.0,037.2,030.3,027.4,0000.0,0005.80,0026.90,0003.55
2024-06-07 16:26:00,SystemResetWarning,0827.8,5.00,000.00,028.8,027.7,000.0,037.2,030.5,026.8,0000.0,0005.73,0027.33,0003.51
2024-06-07 16:27:00,SystemResetWarning,0827.8,4.99,000.00,028.9,028.0,000.0,037.2,030.6,026.9,0000.0,0005.59,0027.01,0003.48
2024-06-07 16:28:00,SystemResetWarning,0827.8,5.00,000.00,028.9,028.2,000.0,037.2,030.7,026.3,0000.0,0005.43,0025.53,0003.45
2024-06-07 16:29:00,SystemResetWarning,0827.8,5.01,000.00,029.0,028.4,000.0,037.2,030.9,026.0,0000.0,0005.35,0023.68,0003.44
2024-06-07 16:30:00,SystemResetWarning,0827.8,5.00,000.00,029.1,028.6,000.0,037.2,031.0,025.8,0000.0,0005.26,0022.89,0003.42
2024-06-07 16:31:00,SystemResetWarning,0827.9,4.99,000.00,029.2,028.7,000.0,037.3,031.0,026.2,0000.0,0005.14,0022.31,0003.39
2024-06-07 16:32:00,SystemResetWarning,0827.8,4.99,000.00,029.1,027.1,000.0,037.4,030.2,026.8,0000.0,0005.06,0020.47,0003.35
2024-06-07 16:33:00,SystemResetWarning,0827.8,5.01,000.00,028.7,025.5,000.0,037.4,029.4,028.4,0000.0,0005.00,0019.34,0003.33
2024-06-07 16:34:00,SystemResetWarning,0827.8,4.99,000.00,028.5,025.8,000.0,037.3,029.4,028.9,0000.0,0004.96,0019.10,0003.33
2024-06-07 16:35:00,SystemResetWarning,0827.8,4.98,000.00,028.5,026.2,000.0,037.2,029.7,029.4,0000.0,0005.02,0019.27,0003.34
2024-06-07 16:36:00,SystemResetWarning,0827.8,5.02,000.00,028.5,026.7,000.0,037.1,030.0,029.6,0000.0,0005.02,0019.06,0003.35
2024-06-07 16:37:00,SystemResetWarning,0827.9,5.01,000.00,028.6,027.1,000.0,037.1,030.2,029.7,0000.0,0004.96,0017.42,0003.37
2024-06-07 16:38:00,SystemResetWarning,0828.0,5.00,000.00,028.7,027.5,000.0,037.0,030.4,028.8,0000.0,0004.97,0016.51,0003.39
2024-06-07 16:39:00,SystemResetWarning,0828.1,5.00,000.00,028.8,027.8,000.0,037.0,030.5,029.0,0000.0,0004.96,0016.18,0003.40
2024-06-07 16:40:00,SystemResetWarning,0828.1,5.00,000.00,028.9,028.1,000.0,037.0,030.7,026.7,0000.0,0004.96,0017.74,0003.40
2024-06-07 16:41:00,SystemResetWarning,0828.1,5.00,000.00,028.9,028.3,000.0,037.1,030.8,028.0,0000.0,0004.94,0017.93,0003.40
2024-06-07 16:42:00,SystemResetWarning,0828.1,5.00,000.00,029.0,028.5,000.0,037.1,030.9,026.5,0000.0,0004.95,0018.37,0003.40
2024-06-07 16:43:00,SystemResetWarning,0828.0,5.01,000.00,029.1,028.7,000.0,037.1,031.0,025.9,0000.0,0004.94,0019.06,0003.41
2024-06-07 16:44:00,SystemResetWarning,0828.0,4.98,000.00,029.1,027.7,000.0,037.2,030.5,024.8,0000.0,0004.93,0020.44,0003.41
2024-06-07 16:45:00,SystemResetWarning,0827.9,5.00,000.00,028.8,025.9,000.0,037.3,029.6,025.7,0000.0,0004.94,0020.55,0003.38
2024-06-07 16:46:00,SystemResetWarning,0827.8,5.01,000.00,028.5,025.7,000.0,037.3,029.4,026.5,0000.0,0004.85,0020.83,0003.33
2024-06-07 16:47:00,SystemResetWarning,0827.8,5.00,000.00,028.5,026.2,000.0,037.1,029.6,026.4,0000.0,0004.79,0021.02,0003.30
2024-06-07 16:48:00,SystemResetWarning,0827.9,4.99,000.00,028.5,026.6,000.0,037.0,029.9,027.7,0000.0,0004.76,0021.22,0003.26
2024-06-07 16:49:00,SystemResetWarning,0828.1,5.00,000.00,028.6,027.0,000.0,037.0,030.1,027.4,0000.0,0004.76,0021.73,0003.22
2024-06-07 16:50:00,SystemResetWarning,0828.1,5.00,000.00,028.6,027.4,000.0,037.0,030.3,027.2,0000.0,0004.73,0022.83,0003.19
2024-06-07 16:51:00,SystemResetWarning,0828.1,5.01,000.00,028.7,027.7,000.0,036.9,030.5,027.4,0000.0,0004.72,0022.04,0003.17
2024-06-07 16:52:00,SystemResetWarning,0828.1,5.00,000.00,028.8,028.0,000.0,037.0,030.6,027.2,0000.0,0004.73,0022.59,0003.15
2024-06-07 16:53:00,SystemResetWarning,0828.0,5.00,000.00,028.9,028.2,000.0,037.0,030.7,025.4,0000.0,0004.76,0022.02,0003.13
2024-06-07 16:54:00,SystemResetWarning,0828.1,5.00,000.00,029.0,028.4,000.0,037.0,030.8,026.7,0000.0,0004.76,0021.36,0003.12
2024-06-07 16:55:00,SystemResetWarning,0828.1,5.00,000.00,029.1,028.6,000.0,037.0,030.9,027.5,0000.0,0004.78,0020.79,0003.10
2024-06-07 16:56:00,SystemResetWarning,0828.1,5.00,000.00,029.1,028.7,000.0,037.1,031.0,026.6,0000.0,0004.82,0021.84,0003.10
2024-06-07 16:57:00,SystemResetWarning,0828.1,4.97,000.00,029.0,027.3,000.0,037.2,030.3,026.6,0000.0,0004.82,0022.65,0003.10
2024-06-07 16:58:00,SystemResetWarning,0827.9,5.01,000.00,028.7,025.5,000.0,037.2,029.4,027.5,0000.0,0004.81,0022.27,0003.09
2024-06-07 16:59:00,SystemResetWarning,0827.9,5.01,000.00,028.5,025.6,000.0,037.2,029.4,026.8,0000.0,0004.82,0023.51,0003.09
